Location: Three Oaks Observatory
(31.1535°N, 83.5955°W)
Time: 00:37:52
(UTC-05:00)

FALCONSAT 3 - Pass Details

Date: 27 October 2019
Orbit: 454 x 456 km, 35.4° (Epoch: 21 November)

Event Time Altitude Azimuth Distance (km) Brightness Sun altitude
Exits shadow 06:49:45 20° 260° (W) 1,108 ? -12.6°
Maximum altitude 06:51:39 34° 208° (SSW) 767 ? -12.2°
Drops below altitude 10° 06:54:56 10° 142° (SE) 1,575 ? -11.5°
Sets 06:57:12 0° 132° (SE) 2,444 ? -11.0°
